Weather History for Quincy, IL

Change the Weather History Date:

Sunday, December 8, 2013

  Actual Average Record
Temperature  
Mean Temperature 20 °F 32 °F  
Max Temperature 24 °F 40 °F 70 °F (1991)
Min Temperature 16 °F 24 °F -6 °F (1917)
Degree Days  
Heating Degree Days 45 33  
Month to date heating degree days 275 254  
Since 1 July heating degree days 1408 1354  
Cooling Degree Days 0 0  
Month to date cooling degree days 0 0  
Year to date cooling degree days 1242 1094  
Moisture  
Dew Point 17 °F    
Average Humidity 71    
Maximum Humidity 88    
Minimum Humidity 54    
Precipitation  
Precipitation T in 0.09 in 0.70 in (1980)
Month to date precipitation T 0.69  
Year to date precipitation 34.59 35.77  
Sea Level Pressure  
Sea Level Pressure 30.12 in    
Wind  
Wind Speed 9 mph (SSE)    
Max Wind Speed 15 mph    
Max Gust Speed 19 mph    
Visibility 5 miles    
Events Snow    
T = Trace of Precipitation, MM = Missing Value Source: NWS Daily Summary

Daily Weather History Graph

Daily Weather History Graph

Search for Another Location

Airport:

Trip Planner

Search our weather history database for the weather conditions in past years. The results will help you decide how hot, cold, wet, or windy it might be!

Date:

Astronomy

Dec. 08, 2013 Rise Set
Actual Time 7:14 AM CST 4:39 PM CST
Civil Twilight 6:43 AM CST 5:09 PM CST
Nautical Twilight 6:09 AM CST 5:43 PM CST
Astronomical Twilight 5:37 AM CST 6:16 PM CST
Moon 11:34 AM CST (12/8) 11:28 PM CST (12/8)
Length of Visible Light 10h 26m
Length of Day
9h 25m
Waxing Crescent, 40% of the Moon is Illuminated
Dec 8
Waxing Crescent
Dec 9
First Quarter
Dec 17
Full
Dec 25
Last Quarter
Jan 1
New

Hourly Weather History & Observations

Time (CST) Temp. Windchill Dew Point Humidity Pressure Visibility Wind Dir Wind Speed Gust Speed Precip Events Conditions
12:54 AM 16.0 °F 3.6 °F 3.9 °F 59% 30.49 in 10.0 mi ENE 10.4 mph - N/A   Partly Cloudy
1:54 AM 17.1 °F 4.3 °F 3.9 °F 56% 30.46 in 10.0 mi ENE 11.5 mph - N/A   Overcast
2:54 AM 17.1 °F 3.6 °F 5.0 °F 59% 30.43 in 10.0 mi ENE 12.7 mph - N/A   Overcast
3:54 AM 18.0 °F 7.7 °F 6.1 °F 60% 30.40 in 10.0 mi East 8.1 mph - N/A   Overcast
4:54 AM 18.0 °F 4.8 °F 6.1 °F 60% 30.37 in 10.0 mi ENE 12.7 mph - N/A   Overcast
5:54 AM 18.0 °F 4.8 °F 8.1 °F 65% 30.34 in 8.0 mi East 12.7 mph - 0.00 in Snow Light Snow
6:54 AM 18.0 °F 5.4 °F 9.0 °F 68% 30.30 in 10.0 mi East 11.5 mph - 0.00 in   Overcast
7:54 AM 18.0 °F 4.8 °F 10.0 °F 71% 30.27 in 10.0 mi East 12.7 mph - N/A   Overcast
8:54 AM 19.9 °F 7.9 °F 10.9 °F 68% 30.26 in 10.0 mi East 11.5 mph 19.6 mph N/A   Overcast
9:54 AM 19.9 °F 7.9 °F 12.9 °F 74% 30.26 in 5.0 mi ESE 11.5 mph - 0.00 in Snow Light Snow
10:54 AM 21.0 °F 8.6 °F 14.0 °F 74% 30.21 in 9.0 mi ESE 12.7 mph - 0.00 in   Overcast
11:54 AM 23.0 °F 11.1 °F 15.1 °F 72% 30.15 in 7.0 mi ESE 12.7 mph - N/A   Overcast
12:26 PM 23.0 °F 13.9 °F 16.0 °F 74% 30.10 in 2.5 mi ESE 8.1 mph - 0.00 in Snow Light Snow
12:54 PM 23.0 °F 13.1 °F 17.1 °F 78% 30.11 in 1.2 mi ESE 9.2 mph - 0.00 in Snow Light Snow
1:28 PM 23.0 °F 12.4 °F 18.0 °F 81% 30.04 in 1.0 mi ESE 10.4 mph - 0.00 in Snow Light Snow
1:54 PM 23.0 °F 12.4 °F 19.0 °F 85% 30.06 in 1.2 mi ESE 10.4 mph - 0.00 in Snow Light Snow
2:54 PM 24.1 °F 16.0 °F 19.0 °F 81% 30.03 in 1.5 mi East 6.9 mph - 0.00 in Snow Light Snow
3:04 PM 24.1 °F 18.2 °F 19.0 °F 81% 30.00 in 2.5 mi East 4.6 mph - 0.00 in   Haze
3:24 PM 24.1 °F 18.2 °F 19.9 °F 84% 30.01 in 3.0 mi ESE 4.6 mph - 0.00 in   Overcast
3:54 PM 24.1 °F 19.7 °F 19.9 °F 84% 30.04 in 2.0 mi SE 3.5 mph - 0.00 in Snow Light Snow
4:01 PM 24.1 °F 19.7 °F 19.9 °F 84% 30.01 in 1.0 mi SSE 3.5 mph - 0.00 in Snow Light Snow
4:05 PM 24.1 °F 18.2 °F 19.9 °F 84% 30.01 in 0.8 mi SE 4.6 mph - 0.00 in Snow Light Snow
4:17 PM 24.1 °F 19.7 °F 21.0 °F 88% 30.01 in 0.8 mi SSE 3.5 mph - 0.00 in Snow Light Snow
4:45 PM 24.1 °F - 21.0 °F 88% 30.01 in 1.0 mi Calm Calm - 0.00 in Snow Light Snow
4:54 PM 24.1 °F 19.7 °F 21.0 °F 88% 30.04 in 1.5 mi South 3.5 mph - 0.00 in Snow Light Snow
4:59 PM 24.1 °F 19.7 °F 21.0 °F 88% 30.00 in 2.5 mi South 3.5 mph - 0.00 in   Overcast
5:25 PM 24.1 °F - 21.0 °F 88% 30.00 in 2.5 mi Calm Calm - 0.00 in Snow Light Snow
5:34 PM 24.1 °F 19.7 °F 21.0 °F 88% 30.00 in 2.5 mi SSW 3.5 mph - 0.00 in Snow Light Snow
5:42 PM 24.1 °F - 21.0 °F 88% 30.00 in 3.0 mi Calm Calm - 0.00 in   Overcast
5:48 PM 24.8 °F 20.5 °F 21.2 °F 86% 30.00 in 4.0 mi SW 3.5 mph - 0.00 in   Overcast
5:54 PM 24.1 °F 19.7 °F 21.0 °F 88% 30.04 in 4.0 mi SSW 3.5 mph - 0.00 in   Overcast
6:31 PM 24.1 °F 17.0 °F 21.0 °F 88% 30.01 in 5.0 mi SSW 5.8 mph - N/A   Overcast
6:49 PM 24.8 °F 19.1 °F 21.2 °F 86% 30.02 in 5.0 mi SW 4.6 mph - N/A   Overcast
6:54 PM 24.1 °F 19.7 °F 21.0 °F 88% 30.05 in 5.0 mi SW 3.5 mph - N/A   Overcast
7:10 PM 24.1 °F 17.0 °F 21.0 °F 88% 30.02 in 5.0 mi SW 5.8 mph - N/A   Overcast
7:54 PM 24.1 °F 17.0 °F 21.0 °F 88% 30.07 in 4.0 mi WSW 5.8 mph - N/A   Overcast
8:54 PM 24.1 °F 16.0 °F 21.0 °F 88% 30.06 in 4.0 mi WSW 6.9 mph - N/A   Overcast
9:31 PM 24.1 °F 13.7 °F 19.9 °F 84% 30.04 in 5.0 mi WSW 10.4 mph - N/A   Overcast
9:39 PM 24.1 °F 13.1 °F 19.9 °F 84% 30.04 in 5.0 mi West 11.5 mph - N/A   Overcast
9:54 PM 24.1 °F 13.7 °F 19.9 °F 84% 30.07 in 5.0 mi West 10.4 mph - N/A   Overcast
10:17 PM 24.1 °F 13.7 °F 19.9 °F 84% 30.04 in 6.0 mi West 10.4 mph - N/A   Overcast
10:54 PM 23.0 °F 11.1 °F 19.0 °F 85% 30.08 in 7.0 mi West 12.7 mph - N/A   Overcast
11:54 PM 23.0 °F 13.9 °F 19.0 °F 85% 30.09 in 7.0 mi West 8.1 mph - N/A   Overcast